Regional Weather Roundup
Issued by NWS

Home | Current Version | Previous Version | Graphics & Text | Print | Product List | Glossary On
Versions: 1 2 3 4 5 6 7 8 9 10 11 12 13 14 15 16 17 18 19 20 21 22 23 24 25 26 27 28 29 30 31 32 33 34 35 36 37 38 39 40 41 42 43 44 45 46 47 48 49 50
000
ASUS43 KLMK 260010
RWRKY
KENTUCKY REGIONAL WEATHER ROUNDUP
NATIONAL WEATHER SERVICE LOUISVILLE KY
700 PM EST SUN JAN 25 2015

NOTE "FAIR" INDICATES FEW OR NO CLOUDS BELOW 12,000 FEET
WITH NO SIGNIFICANT WEATHER AND/OR OBSTRUCTIONS TO VISIBILITY.

KYZ001>023-026-027-061>063-070>075-260100-
WESTERN AND SOUTH CENTRAL KENTUCKY

CITY           SKY/WX    TMP DP  RH WIND       PRES   REMARKS
PADUCAH        LGT RAIN  44  42  93 W13       29.69R
HENDERSON      CLOUDY    39  36  87 W3        29.66R
OWENSBORO      LGT RAIN  41  40  96 CALM      29.66R
HOPKINSVILLE   MIX PCPN  41  39  94 SW13      29.68R
BOWLING GREEN  LGT RAIN  44  39  82 W13G20    29.67R
GLASGOW        DRIZZLE   44  44 100 SW10      29.65S
$$

KYZ024-025-028>034-038-045-046-053-260100-
NORTH CENTRAL KENTUCKY

CITY           SKY/WX    TMP DP  RH WIND       PRES   REMARKS
LOUISVILLE/SDF LGT RAIN  42  40  92 N3        29.66R
LOUISVILLE/LOU LGT RAIN  41  39  93 N5        29.66R
FORT KNOX      NOT AVBL
$$

KYZ035>037-039>044-047>052-055>060-089>105-260100-
NORTHEAST KENTUCKY

CITY           SKY/WX    TMP DP  RH WIND       PRES   REMARKS
LEXINGTON      RAIN      41  39  93 S6        29.67R
COVINGTON      LGT RAIN  39  37  92 NE5       29.67R FOG
FRANKFORT      LGT RAIN  39  37  92 E3        29.65R
$$

KYZ054-064>069-076>088-106>120-260100-
SOUTHEAST KENTUCKY

CITY           SKY/WX    TMP DP  RH WIND       PRES   REMARKS
JACKSON        CLOUDY    45  34  65 SE6       29.68S
LONDON         CLOUDY    47  30  51 SE3       29.66S
SOMERSET       CLOUDY    48  32  53 S8        29.67R
MIDDLESBORO    CLOUDY    45  35  67 S3        29.70S
MONTICELLO     CLOUDY    50  37  60 S14       29.69R
$$



USA.gov is the U.S. government's official web portal to all federal, state and local government web resources and services.